This is the latest recevied weather packets stored in our database for station/object OE3APM-13. If no packets are shown the sender has not sent any weather packets the latest 1 day(s).
| Time | Temp. | Humidity | Pressure | Rain* | Wind** | Luminosity | Snow |
|---|---|---|---|---|---|---|---|
| 1778026173 | 13.33° C | 82% | 1007.1 hPa | 0 mm | 1.79 m/s, 290° | 0 W/m² | - |
| 1778025863 | 13.33° C | 81% | 1007 hPa | 0 mm | 1.34 m/s, 274° | 0 W/m² | - |
| 1778025565 | 13.33° C | 81% | 1007 hPa | 0 mm | 1.34 m/s, 277° | 0 W/m² | - |
| 1778025263 | 13.33° C | 81% | 1006.9 hPa | 0 mm | 1.79 m/s, 275° | 0 W/m² | - |
| 1778024964 | 13.33° C | 80% | 1006.9 hPa | 0 mm | 2.24 m/s, 279° | 0 W/m² | - |
| 1778024662 | 13.89° C | 80% | 1006.9 hPa | 0 mm | 2.24 m/s, 290° | 0 W/m² | - |
| 1778024363 | 13.89° C | 79% | 1006.9 hPa | 0 mm | 2.24 m/s, 283° | 0 W/m² | - |
| 1778024061 | 13.89° C | 78% | 1006.9 hPa | 0 mm | 2.68 m/s, 306° | 0 W/m² | - |
| 1778023760 | 14.44° C | 78% | 1006.8 hPa | 0 mm | 2.68 m/s, 284° | 0 W/m² | - |
| 1778023462 | 14.44° C | 76% | 1006.8 hPa | 0 mm | 2.68 m/s, 313° | 0 W/m² | - |
| 1778023157 | 14.44° C | 76% | 1006.8 hPa | 0 mm | 2.68 m/s, 296° | 0 W/m² | - |
| 1778022854 | 14.44° C | 76% | 1006.6 hPa | 0 mm | 3.13 m/s, 316° | 0 W/m² | - |
| 1778022556 | 14.44° C | 76% | 1006.5 hPa | 0 mm | 3.13 m/s, 300° | 0 W/m² | - |
| 1778022262 | 15° C | 75% | 1006.4 hPa | 0 mm | 3.13 m/s, 300° | 0 W/m² | - |
| 1778021955 | 15° C | 75% | 1006.5 hPa | 0 mm | 2.68 m/s, 325° | 0 W/m² | - |
| 1778021657 | 15° C | 74% | 1006.4 hPa | 0 mm | 2.68 m/s, 327° | 0 W/m² | - |
| 1778021355 | 15° C | 73% | 1006.4 hPa | 0 mm | 3.13 m/s, 299° | 0 W/m² | - |
| 1778021055 | 15.56° C | 73% | 1006.4 hPa | 0 mm | 3.13 m/s, 303° | 0 W/m² | - |
| 1778020755 | 15.56° C | 72% | 1006.4 hPa | 0 mm | 3.13 m/s, 319° | 0 W/m² | - |
| 1778020455 | 15.56° C | 71% | 1006.5 hPa | 0 mm | 3.13 m/s, 299° | 0 W/m² | - |
| 1778020155 | 16.11° C | 70% | 1006.6 hPa | 0 mm | 4.02 m/s, 276° | 0 W/m² | - |
| 1778019855 | 16.11° C | 68% | 1006.7 hPa | 0 mm | 4.02 m/s, 287° | 0 W/m² | - |
| 1778019555 | 16.11° C | 66% | 1006.5 hPa | 0 mm | 4.02 m/s, 291° | 0 W/m² | - |
| 1778019256 | 16.67° C | 65% | 1006.4 hPa | 0 mm | 3.58 m/s, 288° | 0 W/m² | - |
| 1778018957 | 16.67° C | 64% | 1006.1 hPa | 0 mm | 3.13 m/s, 263° | 0 W/m² | - |
* Rain latest hour (hover to see other rain measurements)
** Current wind speed in m/s (hover to see current wind gust speed)